Zurück zum Katalog

STARLINK-11596

AktivKommunikationVLEO
NORAD 64321·PAYLOAD·🇺🇸 United States

Gestartet Jun 10, 2025 von Cape Canaveral Space Force Station

Loading…

Nächste Überflüge (nächste 24 Stunden)

TLE

AktuellSource: CelesTrak SupGP

Epoche: Sep 14, 2026, 23:10 UTC

1 64321C 25124E   26257.96576389 -.00092238  00000+0 -71645-3 0  2573
2 64321  43.0004 328.5364 0001487 268.1959 327.9202 15.70883104    13

Verfolge STARLINK-11596 in Echtzeit mit AllMySat

Download on the App Store